Wind_Speed
60 61 61 61 60 59 59 61 64 66 65 62 59 55 51 47 47 49 52 54 54 54 56 57 57 56 55 54 53 53 52 52 52 52 51 50 50 49 48 47 47 47 47 47 47 47 47 47 48 49 49 50 50 50 51 52 52 53 54 56 58 59 57 54 53 55 56 57 59 60 61 61 60 60 60 60 60 60 59 58 58 58 57 56 55
60 62 63 63 63 62 62 62 65 70 70 68 65 62 58 56 56 55 57 58 58 59 59 58 58 57 57 56 55 54 54 53 54 54 53 53 52 52 51 50 50 50 50 50 50 50 49 48 48 49 50 51 52 52 53 54 54 55 55 56 57 59 59 57 55 55 56 58 59 61 63 64 64 63 63 63 63 62 61 59 58 59 59 58 57
56 56 60 63 65 66 65 65 66 69 71 70 68 68 67 66 64 62 62 62 61 60 58 56 57 57 57 57 57 57 57 56 56 55 55 55 54 54 54 53 53 52 52 53 53 53 53 52 51 50 51 52 53 54 54 55 56 57 57 57 58 59 60 60 58 57 57 58 60 62 64 66 67 66 66 65 65 64 63 62 60 60 60 60 59
50 45 44 48 56 64 67 68 68 68 69 69 69 68 67 66 64 63 64 65 63 61 60 59 58 57 57 58 58 58 58 58 58 58 57 57 57 56 56 56 56 55 55 55 55 56 56 56 55 54 53 53 53 55 56 56 57 58 59 59 60 60 61 62 61 60 59 59 60 62 64 66 68 68 68 68 67 66 66 65 64 63 63 63 64
51 47 42 37 41 52 60 64 67 68 68 69 70 69 68 67 66 66 67 67 66 65 65 65 63 61 61 62 61 60 59 59 59 59 59 60 60 59 58 58 58 58 58 57 58 58 58 58 58 58 57 56 56 56 56 57 58 59 60 60 61 62 63 63 64 63 62 61 61 62 63 66 68 69 70 69 69 68 67 67 66 66 67 67 67
51 52 50 45 44 49 55 59 63 67 69 71 72 71 70 69 68 67 68 70 70 69 69 69 68 67 67 67 66 65 64 63 62 61 61 60 60 60 60 60 60 60 60 60 60 60 60 60 60 60 60 60 60 60 59 59 59 60 61 61 62 62 63 64 65 66 66 65 64 64 64 65 67 69 70 71 70 70 69 69 68 68 68 69 69
51 50 50 50 51 50 49 49 50 55 63 66 67 67 66 65 65 64 64 65 66 67 67 66 66 67 68 70 71 70 68 67 66 65 64 62 61 61 61 62 62 62 62 62 62 62 62 62 62 62 62 62 63 63 63 63 63 62 62 63 63 63 63 64 65 66 67 68 67 67 66 67 67 68 69 71 73 72 71 71 72 72 72 72 72
53 53 52 53 53 49 44 41 43 48 55 59 60 62 62 61 61 60 57 55 56 59 61 62 62 63 65 67 69 69 68 67 67 67 66 65 64 64 64 64 64 64 64 64 64 64 64 63 63 64 64 64 65 66 66 66 66 66 66 65 65 65 65 65 65 66 67 68 69 69 69 69 69 69 69 70 72 74 75 75 75 75 75 75 76
53 54 54 54 55 54 53 52 53 56 58 59 59 59 59 59 59 58 56 55 57 59 60 60 60 61 63 64 66 66 66 66 66 67 67 66 65 64 65 66 67 66 66 66 65 65 66 65 65 65 66 66 67 68 68 68 69 69 69 69 69 68 68 68 67 67 67 68 70 70 71 71 71 71 71 71 72 73 76 77 78 78 77 77 78
53 54 55 55 55 57 58 60 61 62 62 61 59 59 59 59 59 59 59 60 60 61 59 59 59 60 61 63 64 65 65 66 67 67 67 66 64 63 64 65 65 64 64 64 65 65 66 67 67 68 68 68 68 69 70 71 71 71 71 72 72 72 72 72 71 70 70 70 70 71 71 72 73 73 74 74 74 74 75 77 79 81 82 82 81
53 53 54 55 56 56 58 59 60 60 60 60 59 59 59 59 59 60 60 60 60 59 58 59 59 60 60 61 63 63 64 65 67 66 66 64 63 64 64 61 60 59 58 59 61 63 65 65 66 68 69 69 68 69 71 72 73 73 74 74 75 75 75 75 75 75 74 73 73 73 73 73 74 74 75 76 76 76 77 77 78 80 82 84 85
53 54 54 54 55 56 57 58 58 59 59 59 60 60 60 60 60 60 60 60 60 59 59 60 60 60 61 60 61 62 63 65 66 66 66 65 63 63 62 58 57 57 58 60 62 64 65 66 66 67 69 70 69 70 71 73 74 74 76 77 77 78 78 78 78 78 78 77 77 77 76 76 76 76 76 76 77 77 78 79 79 79 80 82 84
54 55 55 56 56 56 57 57 58 59 60 61 61 62 62 62 62 62 62 62 62 61 61 61 61 61 61 60 61 63 64 66 67 66 66 66 64 63 62 61 61 62 64 66 67 68 69 69 69 69 70 71 71 72 73 74 75 76 77 78 79 80 80 80 81 80 80 80 80 81 81 80 80 80 80 79 78 79 79 80 80 80 81 82 83
57 57 58 58 57 57 57 58 59 60 61 62 63 64 64 65 65 65 65 65 65 64 63 63 62 62 61 61 63 65 67 68 69 68 68 68 66 66 65 66 67 69 70 72 73 73 73 73 73 72 72 72 73 74 74 75 76 77 78 79 80 81 82 82 83 82 82 82 82 83 84 84 84 84 84 83 82 82 82 82 82 82 82 83 83
58 59 59 59 59 59 59 60 61 62 62 63 64 65 66 66 67 67 68 68 68 67 67 66 65 63 62 63 66 69 70 71 71 72 73 73 73 73 72 72 73 74 74 75 76 76 76 76 76 76 76 75 75 75 75 76 77 77 78 80 81 82 83 84 84 84 84 84 85 85 86 87 87 88 88 88 87 86 86 85 85 85 85 85 85
60 61 61 61 62 61 62 63 64 64 65 65 66 67 67 68 69 69 69 70 70 70 69 68 67 65 64 66 69 71 73 73 74 75 76 76 77 78 78 79 79 79 78 78 77 77 77 78 79 79 79 79 79 78 78 78 78 78 79 80 81 82 83 84 85 85 85 86 87 87 88 90 91 91 91 92 91 91 90 89 89 89 88 87 87
63 63 63 64 64 64 64 66 66 66 67 67 68 68 69 70 70 70 71 71 71 71 71 70 68 67 67 69 71 73 74 75 76 77 77 78 79 80 80 81 81 81 81 81 81 80 79 79 79 80 81 82 83 82 81 81 81 81 81 81 82 83 84 84 84 85 86 87 88 90 90 92 93 94 94 95 95 95 94 93 93 93 92 91 91
66 66 65 66 67 66 67 68 69 69 70 70 70 70 71 72 72 72 72 72 73 73 72 71 68 68 69 71 73 74 75 76 77 77 78 78 80 81 81 81 81 82 82 83 84 84 83 82 81 82 82 83 84 85 85 85 84 83 83 84 84 85 85 86 86 86 86 87 88 90 92 93 95 96 97 97 98 98 98 97 97 96 95 94 94
70 69 68 68 69 69 69 70 70 71 72 72 73 73 73 73 73 73 73 73 73 73 72 70 69 69 70 72 73 74 75 76 77 77 78 79 80 81 82 82 82 82 83 84 85 85 85 85 85 85 85 86 86 87 88 88 88 87 87 87 87 87 88 88 88 89 89 89 90 91 92 94 95 97 98 99 100 101 101 100 100 100 98 98 97
72 71 70 70 71 71 71 72 72 72 73 74 74 75 75 75 75 74 74 74 73 73 72 70 70 70 71 72 73 74 76 77 77 77 78 78 79 81 82 83 83 83 84 84 85 85 85 86 86 87 88 89 89 90 90 91 91 92 92 90 90 90 90 90 90 90 91 91 92 93 93 94 95 96 98 100 101 102 103 103 103 103 102 101 100
73 73 73 72 73 74 74 74 74 74 74 74 75 76 76 77 76 76 75 75 73 72 72 71 70 69 70 71 73 74 75 76 76 76 77 78 79 80 81 82 83 83 84 84 85 85 85 86 87 88 89 90 90 91 91 92 93 94 94 93 93 93 92 92 92 91 91 91 92 92 93 93 94 95 97 98 100 102 103 104 104 104 104 104 103
75 75 75 75 76 76 76 76 75 75 74 74 74 75 76 77 77 76 76 75 74 73 72 71 70 69 69 70 72 74 75 75 75 75 75 76 78 79 80 81 82 82 83 83 84 84 84 85 86 87 88 89 90 90 91 92 93 94 94 94 95 94 94 94 94 94 94 93 93 93 93 93 93 94 94 96 98 100 101 103 103 104 104 104 104
79 78 78 78 78 78 77 76 76 75 74 74 73 73 74 76 76 76 75 74 73 72 71 70 69 69 69 71 72 74 74 74 73 73 74 75 76 77 78 79 79 80 81 81 82 82 82 83 84 85 86 86 86 87 88 89 90 91 92 93 93 93 93 94 94 95 95 95 95 95 94 94 93 93 93 93 94 96 98 99 101 102 102 103 103
81 81 80 80 79 78 76 75 75 75 74 73 72 71 72 74 74 75 74 73 72 70 69 67 67 68 69 71 72 73 72 72 72 72 73 73 74 76 77 77 77 77 77 78 79 79 80 81 82 83 83 83 82 82 83 83 85 86 87 88 89 89 90 91 92 92 93 93 94 94 94 94 93 93 92 92 91 92 93 95 97 98 100 100 100
83 82 81 80 78 77 75 74 74 73 73 73 72 71 71 71 72 72 72 71 71 69 67 66 66 67 68 69 69 70 69 70 70 71 71 72 73 73 74 73 73 73 73 74 76 76 77 78 79 80 80 79 79 78 78 79 79 80 81 82 84 85 86 87 88 88 89 89 90 90 91 91 92 92 92 91 90 90 90 91 92 94 96 97 97
82 81 80 78 76 74 73 73 72 73 73 73 72 71 70 69 68 68 69 69 69 68 67 66 66 66 66 66 66 66 66 67 67 68 68 69 69 70 70 69 69 69 70 71 72 73 73 74 75 75 75 74 74 74 74 74 75 75 76 77 78 80 81 81 82 83 83 83 84 84 85 87 88 89 89 89 89 88 87 88 88 90 91 93 93
79 78 77 75 73 72 72 72 72 72 72 72 71 68 66 64 64 65 66 66 66 66 66 66 66 65 64 64 64 64 65 65 65 65 64 64 65 66 66 66 66 66 65 66 67 68 69 69 69 69 69 69 69 69 69 69 70 70 71 71 72 72 73 74 74 74 75 75 76 78 79 81 82 83 84 84 84 83 83 82 82 83 84 86 87
75 74 74 73 71 70 71 72 72 71 70 69 68 64 61 61 63 63 62 62 63 64 65 65 64 63 63 63 63 64 64 63 62 61 61 61 62 62 62 62 62 62 62 63 63 64 64 64 64 64 64 64 64 64 64 65 65 65 65 65 65 65 65 66 66 67 68 69 71 72 74 75 77 77 77 77 77 77 76 75 75 75 76 77 78
71 70 70 69 69 69 70 69 69 68 66 65 63 61 60 61 61 60 60 60 60 61 62 62 61 60 60 60 61 62 61 61 60 59 59 60 60 59 60 60 60 60 60 60 61 61 61 61 61 61 61 60 60 59 59 59 59 59 58 59 59 59 60 60 61 62 64 65 67 68 69 70 70 71 71 71 71 71 70 70 69 69 69 70 71
66 66 66 67 67 67 67 67 66 64 63 61 59 60 61 62 59 57 58 58 58 58 59 58 58 58 58 57 58 59 58 58 58 59 58 58 57 57 58 57 57 57 58 58 58 59 59 59 58 58 57 57 56 55 54 53 53 52 52 53 54 55 56 58 59 60 61 62 63 63 63 63 64 65 65 65 65 65 65 64 64 63 63 64 64
63 64 64 65 64 63 64 65 64 61 59 58 58 59 62 62 59 56 55 55 55 56 57 56 56 56 56 55 55 55 56 56 56 57 57 56 56 56 56 55 55 56 56 56 56 57 57 56 56 55 54 53 51 50 48 48 47 47 48 49 51 53 55 56 57 57 57 57 57 57 58 58 58 59 59 60 60 60 60 59 59 58 57 58 59
61 62 62 62 61 60 61 63 63 59 57 57 57 59 61 61 59 56 53 53 54 54 55 55 54 54 53 53 52 53 53 53 53 54 54 55 55 54 54 53 53 54 54 54 54 54 54 53 53 52 50 49 47 45 44 43 43 44 46 48 51 53 54 54 54 53 53 53 53 53 53 53 53 53 54 55 55 56 57 56 55 54 54 54 55
59 60 60 60 59 59 59 61 61 58 56 55 56 58 59 59 57 54 52 52 53 52 52 52 52 52 51 51 51 51 51 51 51 52 53 53 52 51 51 51 51 51 51 51 51 51 50 50 49 47 46 44 43 42 41 42 43 44 46 48 51 52 52 52 51 51 50 50 49 48 48 48 48 49 50 51 51 52 53 54 53 52 52 52 53
58 58 59 59 57 56 56 57 57 56 54 54 55 56 57 56 54 52 51 51 50 49 49 49 50 50 50 50 50 50 50 50 51 51 50 50 49 49 49 49 49 48 48 48 48 47 47 46 45 44 43 42 41 41 41 42 43 45 46 48 49 49 49 49 48 48 47 46 45 45 45 45 45 45 46 46 46 47 48 49 49 49 49 49 49
55 56 56 56 54 53 52 53 54 54 53 53 54 55 54 53 52 51 50 48 47 48 49 49 49 49 49 49 49 50 50 50 49 48 47 47 48 48 48 47 47 47 47 46 46 45 45 44 44 43 42 41 40 41 41 42 43 43 44 45 45 46 46 45 45 45 44 43 42 42 41 40 40 40 41 40 40 41 41 42 43 43 43 43 43
53 53 53 52 51 50 50 50 51 52 52 52 53 52 51 50 50 50 49 47 46 47 49 49 48 48 48 49 49 49 49 48 47 46 46 46 47 47 47 47 47 47 46 45 45 44 44 43 42 41 40 39 40 40 40 40 40 40 41 41 42 42 42 41 41 40 39 38 38 37 36 36 35 35 35 35 35 35 35 35 36 36 36 37 37
49 49 49 48 47 47 48 48 49 50 51 52 51 49 48 49 49 48 48 47 47 47 48 48 48 47 47 48 49 49 48 46 45 44 45 45 46 47 47 47 47 46 45 45 45 44 43 42 41 39 39 39 39 39 38 37 37 37 37 37 37 37 37 36 35 35 34 33 33 32 31 31 31 31 31 31 30 30 30 31 31 31 31 32 32
45 45 45 45 45 45 47 48 49 49 50 51 50 48 48 48 47 46 47 47 46 46 46 47 47 47 47 47 48 47 46 44 43 44 44 45 46 46 46 46 45 45 45 45 44 43 42 41 39 38 38 38 38 36 35 34 34 34 34 33 33 33 32 31 30 30 29 29 28 28 28 28 28 28 28 28 27 27 27 27 27 27 27 28 28
41 41 41 42 43 44 45 46 47 48 49 49 48 47 47 46 45 45 45 45 45 45 46 47 47 46 46 46 45 45 43 43 43 43 44 44 44 43 43 43 44 44 44 43 42 41 40 39 37 36 36 36 34 33 31 31 31 30 30 29 28 28 27 26 25 25 25 25 25 25 25 25 25 26 26 25 25 24 24 24 24 24 24 24 25
39 39 39 40 40 41 43 44 44 46 46 46 46 46 45 44 43 43 43 44 44 45 45 45 44 44 44 44 43 42 42 42 42 42 41 41 40 40 41 41 41 41 41 40 40 39 38 36 34 33 33 33 31 29 28 28 27 27 26 25 25 24 23 22 22 22 22 22 22 22 22 23 23 23 23 23 22 22 22 22 22 22 22 22 22
36 36 36 37 38 39 40 41 42 42 43 44 44 44 43 42 41 42 42 42 42 42 42 41 41 41 41 41 41 40 40 40 39 38 38 38 38 39 39 39 38 38 38 37 36 35 33 31 30 30 30 29 28 26 25 25 24 23 23 22 21 20 19 19 19 19 20 20 20 21 21 22 22 22 22 22 22 22 21 21 21 21 21 21 21
33 33 34 34 35 36 37 38 39 40 41 41 41 41 40 40 40 40 40 39 39 39 39 38 38 38 38 38 38 37 37 36 36 36 36 37 37 36 36 35 35 35 34 33 32 30 29 27 27 27 28 27 25 23 23 22 21 20 19 19 18 17 17 17 18 19 19 19 20 20 21 21 21 22 22 22 22 22 22 22 22 21 21 20 20
30 31 31 32 33 33 34 35 36 37 38 38 39 38 38 38 38 38 37 37 37 37 37 36 36 35 34 34 33 33 33 33 33 34 33 33 33 32 32 32 32 31 30 29 28 26 25 24 24 25 26 24 23 21 21 20 18 17 17 17 17 16 16 17 18 18 19 19 20 20 21 21 22 23 23 23 23 23 23 23 22 21 20 20 19
27 28 28 29 30 31 31 32 33 34 35 36 36 36 36 36 36 36 35 35 35 35 34 34 33 32 31 30 30 30 30 30 30 30 30 30 29 29 29 29 28 26 25 25 24 23 22 22 23 24 24 22 20 19 18 17 16 16 17 17 16 16 16 16 18 18 19 20 21 21 21 22 22 23 23 23 23 23 23 22 21 20 19 18 18
24 25 25 26 27 28 29 30 31 32 33 33 34 34 34 34 33 33 33 33 33 32 32 31 30 29 28 28 28 28 28 28 28 28 28 27 27 27 26 25 24 22 22 22 22 22 21 21 21 22 21 19 17 16 17 16 16 16 17 17 17 16 16 17 18 19 20 20 20 20 21 21 22 22 22 22 22 22 21 20 19 19 18 17 16
22 22 23 24 24 25 26 27 28 29 30 30 30 31 31 31 31 31 30 30 29 29 29 28 27 27 27 27 27 27 26 26 26 26 26 26 25 25 23 22 21 20 21 21 21 21 20 19 20 20 19 17 16 16 16 17 16 17 18 18 18 17 17 17 18 18 19 19 19 19 20 20 21 21 21 21 21 20 19 18 17 17 16 15 15
20 21 21 22 22 23 24 25 26 26 27 27 27 27 28 28 27 27 27 27 27 26 26 25 25 25 25 25 25 25 25 25 25 25 25 24 23 22 21 20 20 19 20 20 20 19 18 18 18 18 18 16 15 16 17 18 18 18 19 19 19 18 17 16 16 17 18 18 18 18 19 20 20 20 20 19 19 18 17 16 15 15 14 14 14
19 19 19 19 19 20 20 21 21 22 22 23 23 24 24 24 24 24 25 25 24 24 23 23 23 24 24 24 24 24 24 24 24 23 23 22 22 21 20 19 19 19 18 18 18 18 17 17 17 17 17 17 16 17 19 19 19 19 19 19 19 17 16 15 16 16 17 17 17 17 17 18 18 18 17 17 16 16 15 14 14 14 13 14 14
17 17 17 17 18 17 17 17 16 17 18 19 20 20 20 21 22 23 23 23 22 22 22 22 22 22 22 23 23 23 23 23 23 22 22 21 21 20 19 19 18 18 18 18 17 17 16 16 17 17 18 18 18 18 20 21 20 20 20 19 19 17 16 15 16 16 16 17 16 15 15 16 17 16 16 15 15 14 13 13 13 13 13 13 13
16 16 16 16 16 16 16 15 15 15 16 17 17 17 18 18 19 20 21 21 21 21 22 22 22 22 22 22 22 23 23 23 22 22 21 21 20 20 19 19 19 19 18 18 17 17 17 17 18 18 19 20 20 20 21 22 22 21 20 19 18 17 16 16 16 16 16 17 16 14 13 14 15 15 14 14 14 14 13 13 13 12 12 12 12
16 16 16 16 16 15 15 15 15 16 16 17 17 17 17 18 19 19 19 19 20 20 21 22 22 22 22 22 23 23 23 23 23 22 21 21 20 19 20 20 20 20 19 19 18 17 18 18 19 20 21 22 22 22 23 23 23 22 20 19 19 18 17 16 16 16 16 17 16 14 12 13 14 15 14 13 14 14 13 12 12 11 11 11 11
Wind_Direction
252 255 259 261 262 259 256 257 259 261 263 264 265 262 259 262 269 269 269 270 267 266 265 263 260 259 258 257 256 255 255 254 253 252 251 251 251 251 252 252 252 252 253 254 255 256 257 257 256 255 254 254 252 250 249 248 247 247 246 245 246 248 249 246 244 245 245 244 242 241 241 241 241 242 243 244 246 248 250 252 253 253 253 252 250
253 255 257 259 261 260 257 256 258 260 262 263 263 262 260 262 267 268 267 267 266 265 264 261 259 258 257 257 257 256 256 255 254 254 253 252 252 251 251 252 252 252 253 253 253 254 254 255 256 255 255 254 254 253 251 250 249 249 248 247 246 247 249 249 246 245 245 246 245 244 243 243 243 243 244 245 247 248 249 249 250 251 252 252 252
256 257 258 259 259 258 257 257 257 259 261 261 261 262 262 263 265 266 265 266 266 264 260 261 262 261 260 260 258 258 257 256 256 255 255 254 253 252 252 252 252 252 252 252 252 253 253 253 253 254 254 254 254 253 252 252 251 250 250 250 248 248 248 250 249 247 245 245 246 246 245 245 245 245 246 246 247 248 248 248 248 248 248 249 251
253 252 255 258 259 259 257 257 257 257 258 259 260 262 263 263 263 263 263 264 264 260 258 260 262 262 262 262 259 257 257 257 256 256 256 255 254 253 253 253 252 252 252 252 252 252 253 252 252 252 253 253 254 254 253 252 252 251 251 251 251 250 249 249 250 250 248 245 244 245 245 246 246 246 246 247 247 247 248 249 249 248 248 248 249
250 245 244 248 257 260 258 256 256 255 256 258 259 260 262 263 264 263 263 262 261 259 259 260 260 260 261 260 258 256 256 256 256 256 256 256 255 254 253 253 253 253 253 253 253 253 253 253 253 252 252 252 253 253 253 253 252 252 251 251 251 251 251 251 251 251 250 248 246 244 244 245 245 246 246 247 247 247 248 249 249 249 250 250 251
253 249 245 240 243 253 259 261 260 258 258 258 259 260 261 262 263 262 262 261 260 259 261 262 262 261 260 258 257 258 258 257 257 256 256 257 256 256 254 254 254 254 254 254 255 255 254 253 253 253 253 253 253 253 252 252 252 252 251 251 251 251 251 252 252 252 252 251 250 247 245 244 244 245 245 246 247 247 248 248 249 249 249 251 252
255 253 249 244 243 248 258 262 261 260 260 258 258 260 261 261 260 260 259 260 260 260 261 262 262 262 260 259 258 258 258 258 258 258 257 257 257 257 256 256 255 256 256 256 256 256 256 255 255 254 253 253 253 253 253 253 253 252 252 251 251 251 251 251 252 252 252 253 252 251 249 248 246 245 245 245 245 246 247 247 248 249 249 250 250
256 254 253 251 249 247 248 247 246 250 256 258 258 259 260 260 260 260 259 259 261 262 262 262 263 263 263 262 261 260 260 259 260 260 260 259 258 257 258 258 257 257 257 257 257 256 256 256 256 256 255 254 253 253 253 253 253 253 253 252 252 252 251 251 251 252 252 253 253 253 252 251 250 248 247 245 244 245 245 246 247 247 247 248 249
257 256 255 255 253 250 245 245 247 250 256 259 259 259 259 259 259 258 256 255 258 261 263 262 263 264 264 264 264 264 263 262 261 261 261 261 260 259 259 258 258 257 257 257 257 257 257 257 257 256 256 256 255 254 254 253 253 253 253 253 253 252 252 252 251 251 252 252 253 253 253 253 253 252 250 249 247 246 245 245 246 247 247 247 247
256 256 256 255 255 253 251 251 252 255 257 259 260 259 259 258 258 257 256 254 255 258 259 260 261 262 263 264 265 266 266 266 265 263 262 261 261 262 261 259 257 257 257 257 257 257 258 259 259 258 257 256 256 256 256 255 254 254 253 253 253 253 253 253 252 252 252 252 252 253 253 254 253 253 252 252 250 249 247 246 246 247 248 248 249
256 255 256 256 256 255 255 255 255 256 258 259 259 259 259 258 258 258 257 257 257 257 257 258 259 260 261 262 264 266 266 266 266 266 265 264 264 265 263 258 254 255 257 259 259 259 259 259 260 259 258 257 257 256 257 257 256 255 255 254 253 253 253 253 253 252 252 252 252 252 253 253 254 253 253 253 252 252 251 250 248 248 248 248 250
259 258 258 258 258 259 259 259 260 260 259 260 260 259 259 259 259 258 258 258 257 256 256 256 256 257 258 260 262 264 264 264 264 265 266 266 266 264 260 257 257 257 259 261 262 262 262 261 260 260 260 259 258 257 257 257 257 257 256 255 254 254 253 253 253 253 253 253 253 253 253 253 253 253 253 253 253 253 252 252 252 251 250 249 249
261 262 261 261 261 261 262 263 264 264 264 263 262 262 261 260 260 259 259 258 257 256 255 255 255 255 256 257 259 260 261 261 261 261 262 263 263 259 256 259 263 265 265 265 265 265 265 264 263 262 261 261 260 259 258 257 257 257 257 256 255 255 254 254 253 253 253 253 253 254 253 253 253 253 253 253 253 253 253 253 253 253 252 252 252
264 263 263 262 262 263 263 265 265 266 266 266 265 265 264 263 262 261 261 260 259 258 257 255 255 255 256 257 257 257 258 258 259 259 258 258 257 256 255 259 264 266 267 267 267 267 267 267 266 265 263 262 261 260 259 259 258 258 257 256 256 255 255 254 254 254 253 253 253 254 254 254 253 253 253 253 252 252 253 253 253 253 253 253 253
265 265 265 265 265 265 264 265 265 266 266 266 266 266 266 265 264 263 262 262 261 260 259 257 256 255 255 255 256 256 256 257 258 258 257 257 256 255 256 258 261 263 264 265 266 267 267 267 267 266 265 264 263 262 261 260 259 259 259 258 257 256 255 255 254 254 253 253 253 254 254 254 254 253 253 253 253 252 252 252 252 252 252 253 253
266 267 268 268 268 268 268 268 267 267 267 267 267 267 266 266 265 264 263 263 262 261 260 259 258 257 256 255 255 256 256 257 257 257 258 258 257 257 257 258 259 260 260 261 262 264 265 265 266 266 265 265 264 263 262 261 261 260 260 259 258 257 256 255 255 254 254 253 253 253 254 255 255 255 254 254 254 253 252 252 252 252 252 252 253
268 269 270 272 272 272 272 272 271 270 269 268 268 267 267 266 265 264 264 263 263 262 261 260 260 259 258 256 255 255 256 256 257 257 258 259 259 259 259 259 259 259 259 259 259 259 260 262 263 264 264 265 264 264 263 262 261 261 260 260 259 258 257 256 255 255 254 254 254 253 253 254 254 255 255 255 255 254 254 253 253 253 252 252 253
271 272 272 273 274 274 273 273 273 273 272 271 270 269 268 267 266 265 264 264 263 262 262 262 261 260 259 258 258 257 257 257 257 257 258 258 259 260 260 260 260 260 260 260 259 259 258 258 259 260 261 262 263 264 263 263 262 261 261 260 260 259 259 258 257 256 256 255 255 254 254 254 254 254 255 255 255 255 255 255 254 254 254 253 253
271 272 272 272 273 273 273 274 274 275 274 274 273 272 270 269 268 267 265 264 263 263 262 262 261 260 260 259 259 259 259 258 258 258 258 258 259 259 260 260 260 260 260 260 260 260 260 259 259 258 258 259 259 261 262 263 263 262 262 261 261 260 260 259 259 258 257 257 256 256 256 255 255 255 255 255 255 255 255 255 255 255 255 255 254
271 272 273 273 274 274 274 274 275 275 274 274 274 273 272 271 270 268 267 266 265 264 264 262 261 260 259 259 259 259 259 259 259 259 259 259 259 259 260 260 260 260 259 259 260 260 261 261 260 260 259 259 258 258 259 260 261 262 262 262 262 262 261 261 260 260 259 259 258 258 257 257 256 256 256 256 256 256 256 255 255 255 255 255 255
273 274 274 275 275 275 275 274 274 273 273 273 273 273 272 271 271 270 269 268 267 266 265 264 262 261 260 260 260 260 259 259 258 258 259 259 260 260 260 261 261 261 261 260 260 260 260 261 261 261 260 260 260 259 259 259 260 261 262 262 263 263 264 264 263 263 263 262 262 261 260 259 259 258 258 258 258 258 258 257 257 256 256 256 256
274 275 275 275 275 274 274 274 274 273 272 272 272 271 271 271 270 270 269 269 268 267 266 266 265 264 263 262 262 262 261 261 260 260 259 260 260 260 260 261 261 261 262 262 261 261 261 261 261 261 261 261 260 260 260 261 261 261 262 262 263 263 264 265 265 265 266 266 265 265 264 263 262 261 261 260 260 260 260 259 259 258 257 257 257
275 275 274 274 274 274 273 273 273 273 272 271 270 269 269 269 269 269 268 268 268 267 267 267 267 267 266 264 264 263 263 263 263 263 262 262 261 262 261 261 261 261 261 261 261 262 262 262 262 262 261 261 261 261 261 261 262 262 263 263 263 264 264 264 265 265 266 266 266 267 267 266 266 265 264 262 262 261 261 261 261 260 259 258 258
274 274 274 274 274 273 273 273 272 272 271 269 268 267 266 266 267 268 268 268 268 268 267 267 267 266 266 265 265 265 265 265 265 265 265 264 264 263 263 263 262 262 262 262 262 262 262 262 262 262 263 263 263 263 263 263 263 263 264 264 264 264 264 265 265 265 265 266 266 266 267 267 267 267 267 266 264 263 262 262 262 261 261 260 259
273 273 273 272 272 272 272 271 271 270 269 268 267 265 264 264 264 266 267 268 269 269 269 268 267 266 265 264 264 265 265 266 266 266 266 266 265 265 265 265 265 265 264 264 263 263 262 262 262 262 263 264 265 265 265 265 265 264 264 264 264 264 264 264 265 265 265 266 266 267 267 268 268 268 268 267 266 265 264 263 262 261 261 261 260
271 271 271 271 271 271 271 270 269 268 267 266 265 264 263 263 263 264 265 266 267 268 268 267 266 266 265 265 265 266 266 266 265 265 265 265 266 267 267 267 267 266 265 265 264 264 263 263 263 264 264 265 265 266 266 266 266 265 265 265 264 265 265 265 265 266 266 267 267 267 267 267 267 267 267 267 267 266 265 264 263 262 261 261 261
270 271 271 271 271 270 269 268 267 265 265 264 264 264 264 264 264 263 263 264 264 265 265 265 265 265 266 266 267 266 266 265 265 265 265 266 266 266 267 266 266 266 266 266 266 265 265 265 265 266 266 266 266 266 266 266 266 266 266 266 266 266 266 266 267 267 267 267 267 266 266 266 266 266 266 266 266 266 266 265 264 264 263 263 262
268 268 268 268 268 267 266 265 264 264 264 264 265 266 266 265 264 263 263 263 263 263 264 264 264 265 265 266 266 266 265 265 266 266 266 266 265 265 266 266 267 267 266 266 266 266 266 266 266 267 266 266 266 267 267 267 267 268 268 268 268 268 268 268 268 268 267 267 266 266 266 266 266 267 267 267 268 268 268 268 267 266 265 264 264
265 265 265 265 264 263 263 263 263 264 264 265 266 268 266 264 263 263 264 263 263 263 263 264 264 264 264 264 264 264 265 266 267 266 266 265 265 266 266 266 266 267 267 267 267 267 267 267 267 267 267 267 268 268 268 269 269 270 270 271 271 271 270 269 268 267 266 265 265 265 266 267 268 269 269 269 269 269 269 269 268 267 266 266 265
262 262 262 261 261 261 262 262 262 263 264 265 266 266 266 264 263 262 262 263 263 263 263 263 263 262 262 262 262 263 264 265 266 266 266 266 266 266 265 265 266 266 266 267 267 267 268 268 268 268 269 269 269 270 270 271 272 272 272 272 271 270 269 268 266 265 265 265 266 267 267 268 268 269 269 269 270 270 270 270 269 268 268 267 267
260 260 259 259 259 260 261 262 263 263 263 264 264 263 264 264 264 263 262 262 262 262 262 262 261 261 261 261 262 262 263 263 263 264 265 265 265 265 265 265 265 266 266 266 267 267 268 268 269 270 270 271 272 273 273 274 274 273 273 271 270 268 266 266 266 266 267 268 268 268 268 268 268 268 269 269 270 270 270 270 269 269 268 268 268
259 259 259 259 260 259 260 261 262 262 262 262 262 262 262 263 263 263 262 261 260 260 261 262 262 261 261 261 261 260 260 261 261 262 262 262 263 264 264 265 265 265 266 266 267 267 268 269 270 271 272 274 275 276 276 275 274 272 270 269 268 267 266 267 268 269 269 269 269 270 270 270 270 270 269 269 269 268 269 269 269 269 269 268 268
258 258 258 258 258 257 257 259 261 262 261 261 260 260 261 262 262 262 261 260 260 260 260 260 261 261 261 260 260 259 259 258 259 259 260 261 262 263 263 264 264 265 266 267 268 269 270 270 272 273 275 276 276 276 275 274 272 270 269 267 267 268 269 270 271 271 272 272 272 273 273 273 272 271 270 269 268 268 268 269 270 270 269 269 269
257 257 257 256 256 256 257 258 260 260 260 259 259 258 259 260 261 261 260 260 260 260 259 258 258 258 258 258 258 258 258 257 257 258 259 261 262 263 263 263 264 265 266 267 268 269 270 272 274 275 276 276 277 276 275 273 271 270 269 269 269 270 271 272 273 274 275 275 276 276 275 274 273 271 270 269 269 268 268 268 269 269 269 269 269
256 256 257 257 257 257 257 257 257 258 257 257 256 256 257 259 260 260 259 259 258 258 257 256 255 255 255 256 256 256 257 257 258 259 260 261 262 262 263 264 265 266 267 268 269 271 272 274 275 275 276 276 277 276 274 273 271 271 270 271 271 272 272 273 274 275 276 276 276 275 275 274 272 271 270 270 269 269 268 268 268 268 269 269 268
254 255 256 256 256 256 255 255 255 255 255 255 254 255 256 257 257 257 257 257 255 254 254 254 254 254 254 255 256 256 257 258 259 259 260 260 261 262 264 265 266 267 268 270 272 273 274 275 275 276 278 278 278 276 275 274 273 273 272 272 272 272 273 273 274 274 275 275 274 274 273 272 271 270 270 270 269 269 269 269 269 269 269 269 269
253 253 254 254 254 254 253 253 253 253 254 254 254 254 254 253 253 254 254 254 253 253 253 254 254 254 254 255 255 256 257 259 259 259 259 259 260 262 263 265 267 269 271 272 273 274 275 276 278 279 280 280 278 277 276 275 274 273 272 272 272 272 272 273 273 273 272 272 272 271 271 270 269 269 269 269 270 270 271 271 270 270 269 269 269
253 252 252 251 251 250 249 249 249 250 251 253 253 253 252 252 252 252 252 252 252 252 253 253 253 254 254 255 256 257 259 259 260 259 259 259 260 261 263 265 268 269 270 272 273 275 277 278 279 280 280 279 278 277 276 275 274 273 272 272 271 271 271 271 271 270 270 269 268 267 267 267 267 268 269 269 270 270 271 271 270 270 269 269 268
253 252 250 248 247 246 246 246 247 248 250 251 252 252 252 251 251 250 250 251 251 251 251 252 253 254 256 257 257 258 259 258 258 258 258 258 260 261 263 265 266 267 269 271 273 275 276 277 279 280 280 278 277 277 277 275 273 272 271 269 268 268 269 268 267 266 266 265 265 265 266 267 268 269 270 271 272 272 272 271 270 270 269 268 267
252 250 248 247 246 245 245 245 245 246 247 248 249 250 250 250 250 249 249 249 250 250 251 252 254 255 256 257 257 258 258 257 257 257 258 259 260 261 261 262 264 266 269 271 272 274 275 277 279 278 277 276 276 276 275 273 271 269 267 267 266 266 266 265 264 264 265 265 267 268 269 270 271 273 275 276 276 275 274 273 272 272 270 268 267
250 249 247 246 245 244 243 243 244 244 245 246 247 248 249 249 249 249 249 249 250 251 252 253 253 254 255 256 256 257 257 258 258 258 258 258 258 259 260 262 264 266 268 269 271 273 275 277 277 276 275 275 275 274 272 269 267 266 265 264 264 264 264 264 265 265 266 268 270 272 273 274 276 279 280 280 279 279 278 277 276 274 272 270 268
250 248 246 245 244 243 243 242 243 243 244 245 246 247 248 249 249 249 250 250 251 251 252 252 252 253 253 254 255 256 256 256 255 255 254 255 255 257 259 261 262 263 265 268 270 272 273 274 274 274 273 273 272 270 267 264 263 263 262 262 261 261 263 264 266 267 269 271 273 275 278 280 282 283 284 284 283 282 281 280 279 278 277 275 273
250 248 246 245 244 243 242 242 242 243 243 245 245 246 247 248 248 249 250 250 251 251 251 251 251 252 252 252 252 252 251 250 250 250 250 251 253 254 255 256 258 261 263 266 268 270 271 272 271 270 269 269 267 263 261 260 260 261 260 260 259 260 262 265 267 269 272 274 277 279 281 283 284 284 284 284 283 283 282 281 281 280 279 278 276
249 248 247 245 244 243 242 241 241 241 242 242 243 244 245 246 247 248 249 249 249 250 250 250 250 250 249 248 247 246 245 245 246 246 247 247 248 249 251 253 256 259 262 265 267 268 269 267 266 265 264 263 260 258 257 257 257 258 258 257 257 258 260 263 266 269 273 275 278 280 282 282 282 283 282 281 281 281 281 281 281 280 279 277 274
248 246 245 244 243 242 241 241 240 240 241 241 242 243 244 245 246 247 247 248 248 248 248 248 247 246 245 243 242 242 241 241 241 242 242 243 244 246 248 251 255 258 261 263 265 266 264 262 260 259 258 256 254 254 255 255 254 254 254 253 253 253 256 259 263 267 270 272 275 278 279 280 280 280 280 280 280 280 280 280 279 279 277 275 272
247 246 244 243 242 241 240 240 240 240 241 241 242 243 244 244 245 246 246 247 246 245 244 243 242 240 239 238 237 236 236 236 236 237 238 239 241 244 247 250 254 257 260 262 263 263 260 256 254 254 254 252 252 253 253 251 250 249 248 248 249 250 252 255 260 264 267 270 273 276 277 278 279 280 280 280 281 281 280 279 278 277 275 272 270
244 243 243 242 242 241 240 239 240 240 240 241 241 242 242 243 243 242 242 241 240 239 238 236 234 233 232 231 231 230 230 230 231 232 234 236 239 242 246 249 253 256 258 259 260 258 255 252 252 253 253 251 250 249 249 247 244 243 244 246 248 249 250 253 258 263 267 271 274 277 278 279 280 281 281 281 281 281 281 279 276 275 273 271 269
240 239 237 237 237 238 238 239 240 240 240 239 239 239 238 237 236 235 234 233 232 231 229 227 226 225 225 225 225 225 225 226 228 230 233 236 240 243 247 250 253 254 254 254 254 255 254 254 253 253 253 251 248 246 245 244 240 238 240 245 247 248 250 253 258 263 268 272 275 278 280 281 281 281 282 282 281 280 280 278 275 273 271 269 269
238 236 234 232 230 230 231 233 233 233 233 233 233 233 233 232 231 230 229 228 227 224 222 220 220 220 220 221 220 221 221 223 225 228 232 237 242 247 250 253 253 252 251 250 252 255 256 256 254 253 251 250 247 243 242 241 239 236 237 242 246 247 249 253 259 264 268 271 272 274 276 278 279 280 281 282 281 279 277 275 273 271 270 269 269
237 234 232 231 230 229 228 225 222 221 220 222 224 226 226 225 226 227 227 226 224 220 218 217 216 216 217 218 218 219 220 222 225 229 233 239 244 248 252 253 254 253 251 251 253 255 256 255 253 250 248 248 246 243 240 239 238 235 236 239 244 247 249 253 258 262 266 269 268 266 265 269 275 278 279 279 279 279 275 271 268 267 268 268 267
238 234 231 230 229 228 226 222 218 215 214 214 216 217 218 218 219 220 222 222 221 219 216 215 214 214 215 217 219 220 222 224 227 231 235 240 245 248 251 254 255 255 254 253 253 254 255 254 252 248 245 244 245 243 240 237 236 235 235 238 243 246 249 253 257 260 264 267 266 259 254 259 269 275 276 276 277 278 276 272 267 264 263 265 265
Height
10543 10544 10543 10542 10543 10545 10547 10548 10548 10546 10546 10546 10546 10547 10549 10550 10551 10551 10549 10549 10549 10549 10548 10548 10548 10549 10550 10551 10552 10553 10554 10555 10556 10556 10557 10558 10559 10560 10561 10562 10563 10565 10566 10567 10568 10569 10570 10571 10572 10573 10574 10576 10577 10578 10579 10579 10581 10582 10583 10584 10586 10587 10589 10591 10593 10595 10597 10600 10603 10604 10605 10607 10609 10611 10612 10613 10614 10616 10618 10619 10620 10621 10623 10624 10626
10538 10539 10540 10539 10539 10537 10537 10539 10539 10538 10539 10539 10538 10540 10543 10544 10544 10544 10542 10541 10541 10541 10541 10540 10540 10541 10542 10543 10545 10546 10547 10548 10548 10549 10550 10551 10553 10554 10555 10556 10557 10558 10559 10560 10561 10563 10564 10565 10566 10567 10568 10570 10571 10572 10573 10574 10575 10575 10576 10578 10579 10580 10582 10584 10586 10588 10590 10592 10594 10596 10597 10599 10601 10603 10604 10606 10607 10608 10610 10612 10613 10614 10615 10616 10617
10534 10534 10535 10534 10532 10530 10530 10531 10532 10531 10531 10532 10532 10532 10534 10535 10536 10536 10534 10534 10534 10534 10534 10535 10535 10535 10536 10537 10539 10539 10540 10540 10541 10542 10543 10544 10546 10547 10548 10549 10550 10551 10552 10553 10554 10555 10557 10558 10560 10561 10562 10563 10565 10566 10567 10568 10569 10569 10570 10571 10572 10573 10575 10577 10578 10581 10583 10584 10586 10587 10589 10591 10592 10594 10596 10598 10600 10601 10602 10604 10605 10607 10607 10608 10609
10528 10528 10527 10528 10525 10522 10522 10523 10524 10524 10524 10525 10525 10525 10525 10526 10528 10529 10527 10526 10527 10526 10527 10528 10530 10531 10531 10531 10531 10531 10532 10533 10533 10534 10535 10536 10538 10539 10541 10542 10542 10543 10544 10545 10546 10548 10549 10551 10553 10555 10556 10557 10558 10559 10561 10562 10562 10563 10564 10565 10565 10566 10568 10570 10571 10572 10574 10577 10578 10579 10580 10582 10584 10586 10588 10590 10592 10594 10595 10597 10598 10599 10600 10600 10601
10521 10521 10523 10524 10519 10514 10514 10516 10517 10517 10518 10517 10517 10518 10518 10519 10521 10520 10518 10518 10518 10518 10518 10519 10522 10524 10523 10522 10521 10522 10524 10525 10526 10527 10527 10528 10530 10532 10533 10534 10534 10535 10536 10537 10538 10540 10542 10543 10545 10547 10549 10551 10552 10553 10554 10554 10555 10556 10557 10558 10559 10560 10561 10562 10563 10564 10566 10568 10570 10571 10573 10574 10575 10577 10580 10582 10584 10586 10588 10589 10590 10591 10591 10592 10592
10512 10514 10517 10519 10515 10510 10509 10512 10513 10512 10511 10510 10509 10510 10510 10511 10512 10511 10509 10508 10508 10509 10509 10510 10512 10514 10513 10512 10513 10515 10517 10518 10519 10519 10520 10521 10522 10524 10525 10526 10526 10527 10528 10529 10530 10531 10533 10535 10537 10539 10541 10543 10544 10545 10546 10547 10548 10549 10549 10551 10552 10553 10554 10555 10555 10556 10557 10558 10560 10563 10565 10566 10567 10569 10572 10574 10575 10577 10579 10581 10582 10582 10583 10583 10584
10502 10505 10508 10510 10511 10510 10510 10511 10510 10505 10501 10501 10502 10501 10501 10501 10502 10501 10501 10500 10499 10500 10500 10501 10502 10503 10502 10502 10503 10507 10509 10510 10511 10511 10513 10515 10516 10517 10517 10517 10518 10519 10520 10521 10522 10523 10525 10527 10529 10530 10532 10534 10535 10536 10538 10539 10540 10541 10542 10543 10544 10545 10546 10547 10547 10548 10548 10549 10550 10552 10555 10557 10559 10561 10564 10566 10566 10568 10570 10571 10572 10573 10574 10575 10576
10491 10494 10496 10499 10502 10505 10505 10504 10500 10495 10492 10492 10494 10494 10493 10492 10492 10493 10494 10493 10492 10491 10492 10493 10493 10492 10492 10492 10494 10497 10501 10503 10503 10504 10506 10508 10509 10510 10509 10509 10510 10512 10512 10513 10513 10514 10516 10518 10520 10521 10523 10525 10526 10527 10528 10530 10531 10532 10533 10535 10536 10537 10538 10538 10539 10540 10540 10541 10541 10543 10545 10546 10549 10552 10554 10557 10558 10559 10561 10562 10562 10563 10565 10567 10567
10482 10483 10485 10488 10490 10493 10494 10492 10489 10487 10485 10485 10486 10486 10486 10484 10484 10485 10486 10485 10484 10484 10484 10485 10485 10484 10485 10485 10485 10487 10491 10493 10494 10495 10497 10499 10501 10502 10502 10501 10502 10503 10503 10504 10505 10506 10507 10509 10511 10512 10513 10515 10516 10517 10518 10520 10521 10523 10524 10526 10527 10528 10529 10529 10530 10531 10532 10532 10533 10534 10535 10536 10538 10542 10544 10546 10548 10550 10552 10553 10552 10553 10556 10558 10557
10474 10475 10476 10477 10479 10480 10481 10481 10480 10479 10478 10478 10478 10478 10477 10476 10476 10476 10477 10478 10478 10478 10479 10479 10479 10478 10478 10478 10478 10480 10482 10483 10483 10484 10487 10489 10492 10493 10493 10493 10493 10493 10494 10495 10497 10497 10498 10499 10501 10503 10503 10505 10507 10508 10509 10509 10511 10513 10514 10516 10517 10518 10519 10520 10521 10523 10523 10524 10524 10525 10526 10526 10528 10531 10533 10534 10537 10540 10541 10543 10544 10544 10546 10548 10547
10464 10465 10466 10466 10467 10468 10469 10469 10470 10470 10469 10469 10469 10469 10468 10468 10468 10468 10469 10470 10471 10472 10472 10472 10472 10473 10473 10473 10473 10474 10475 10474 10473 10474 10476 10479 10482 10482 10482 10483 10483 10484 10485 10486 10487 10487 10488 10489 10491 10492 10492 10495 10497 10499 10499 10499 10500 10502 10504 10505 10506 10507 10509 10510 10511 10513 10514 10515 10516 10516 10517 10517 10518 10520 10522 10523 10526 10529 10530 10531 10534 10535 10536 10539 10538
10453 10454 10455 10456 10457 10457 10457 10458 10458 10458 10459 10459 10459 10459 10459 10459 10459 10460 10461 10462 10463 10464 10464 10464 10465 10466 10467 10468 10468 10468 10467 10465 10464 10465 10466 10469 10472 10473 10472 10472 10473 10474 10476 10476 10476 10476 10477 10479 10482 10482 10482 10484 10487 10488 10489 10488 10489 10491 10492 10493 10494 10496 10498 10499 10501 10503 10505 10506 10507 10506 10507 10508 10508 10509 10511 10514 10516 10518 10519 10521 10523 10525 10526 10528 10528
10443 10444 10444 10445 10446 10447 10447 10447 10447 10447 10447 10448 10448 10448 10449 10450 10450 10451 10452 10453 10454 10455 10456 10457 10458 10459 10461 10463 10462 10460 10458 10456 10455 10457 10458 10460 10463 10464 10463 10462 10463 10465 10466 10465 10464 10465 10466 10468 10471 10472 10472 10473 10475 10476 10477 10477 10477 10478 10479 10481 10483 10484 10486 10488 10489 10492 10495 10496 10497 10496 10496 10499 10499 10498 10500 10503 10506 10506 10508 10510 10511 10514 10516 10516 10517
10434 10434 10434 10435 10436 10438 10438 10437 10437 10436 10436 10436 10436 10437 10438 10439 10440 10440 10441 10443 10444 10445 10447 10449 10450 10452 10455 10456 10453 10450 10448 10446 10446 10448 10449 10451 10453 10454 10454 10454 10455 10456 10455 10454 10454 10455 10456 10458 10460 10461 10462 10463 10463 10464 10464 10464 10464 10466 10467 10469 10470 10472 10474 10475 10477 10480 10483 10485 10486 10485 10484 10487 10488 10487 10487 10491 10494 10496 10497 10498 10500 10502 10504 10504 10506
10424 10423 10424 10425 10427 10428 10429 10428 10427 10426 10426 10426 10426 10426 10426 10427 10428 10429 10430 10431 10433 10434 10436 10439 10441 10444 10448 10447 10443 10439 10437 10437 10437 10437 10438 10440 10442 10443 10445 10446 10447 10447 10446 10444 10444 10445 10446 10447 10448 10450 10450 10451 10451 10451 10452 10452 10453 10454 10455 10456 10458 10459 10461 10462 10464 10468 10471 10472 10473 10473 10473 10473 10475 10475 10475 10477 10481 10483 10484 10486 10488 10490 10492 10494 10495
10413 10413 10415 10415 10416 10418 10418 10416 10416 10416 10416 10416 10416 10415 10415 10415 10416 10417 10418 10419 10420 10422 10425 10428 10430 10434 10438 10437 10432 10429 10428 10428 10428 10427 10428 10429 10431 10432 10435 10436 10437 10438 10437 10435 10435 10436 10436 10436 10437 10438 10438 10439 10439 10440 10440 10441 10442 10443 10443 10444 10445 10446 10447 10448 10451 10455 10457 10458 10460 10461 10461 10460 10460 10462 10463 10464 10466 10469 10471 10475 10475 10476 10480 10483 10484
10402 10404 10405 10404 10404 10407 10407 10404 10404 10404 10404 10405 10405 10405 10404 10404 10404 10406 10407 10407 10408 10410 10412 10416 10420 10423 10424 10423 10420 10419 10418 10418 10418 10418 10419 10420 10420 10421 10423 10424 10425 10426 10426 10425 10425 10426 10426 10426 10426 10426 10426 10426 10427 10428 10429 10429 10430 10431 10432 10432 10433 10434 10434 10436 10439 10441 10442 10444 10446 10447 10448 10448 10447 10448 10450 10451 10452 10454 10458 10462 10462 10463 10468 10472 10472
10390 10393 10395 10394 10393 10394 10395 10393 10392 10392 10392 10392 10393 10393 10392 10392 10393 10394 10395 10396 10397 10398 10400 10405 10410 10412 10411 10408 10407 10407 10407 10407 10407 10408 10410 10410 10409 10409 10410 10411 10412 10412 10413 10413 10412 10412 10414 10416 10416 10415 10414 10414 10414 10414 10415 10416 10418 10419 10420 10420 10421 10422 10422 10424 10426 10428 10429 10430 10431 10432 10433 10434 10435 10435 10436 10437 10439 10440 10443 10447 10448 10450 10455 10458 10460
10379 10380 10383 10384 10383 10382 10383 10383 10382 10381 10381 10380 10381 10380 10380 10380 10380 10382 10383 10384 10385 10387 10390 10395 10398 10399 10397 10395 10395 10394 10394 10394 10395 10397 10398 10399 10398 10397 10397 10398 10399 10399 10400 10399 10399 10399 10401 10403 10404 10403 10402 10402 10402 10402 10402 10404 10405 10406 10406 10407 10409 10409 10409 10411 10413 10414 10415 10416 10417 10418 10419 10420 10421 10422 10422 10423 10425 10426 10429 10432 10434 10437 10441 10444 10446
10368 10369 10371 10372 10372 10371 10371 10372 10372 10371 10370 10369 10368 10367 10367 10367 10368 10369 10370 10372 10374 10376 10379 10383 10385 10386 10385 10384 10383 10382 10381 10382 10383 10385 10386 10386 10386 10386 10385 10385 10386 10386 10387 10388 10388 10389 10390 10390 10390 10390 10390 10389 10389 10390 10391 10391 10391 10391 10392 10394 10396 10397 10397 10398 10399 10400 10401 10403 10403 10404 10405 10406 10408 10409 10410 10410 10411 10412 10414 10417 10420 10423 10426 10429 10431
10358 10358 10359 10360 10360 10359 10358 10358 10360 10360 10359 10359 10358 10356 10355 10355 10355 10356 10357 10359 10362 10365 10366 10368 10371 10374 10374 10373 10371 10370 10369 10371 10372 10374 10375 10375 10374 10374 10373 10373 10373 10374 10375 10376 10377 10378 10379 10379 10378 10378 10377 10376 10377 10378 10379 10379 10379 10379 10381 10382 10383 10384 10385 10386 10386 10387 10389 10390 10390 10391 10392 10393 10394 10396 10397 10397 10397 10397 10399 10402 10405 10408 10411 10415 10417
10346 10346 10347 10348 10348 10347 10346 10345 10346 10347 10348 10348 10347 10345 10344 10343 10343 10344 10345 10347 10350 10352 10354 10356 10359 10362 10363 10361 10359 10358 10357 10359 10361 10363 10364 10364 10362 10362 10361 10361 10362 10362 10362 10363 10364 10365 10367 10367 10366 10365 10364 10364 10365 10367 10367 10367 10367 10368 10369 10370 10371 10372 10373 10374 10374 10374 10375 10376 10377 10377 10377 10379 10380 10381 10382 10383 10384 10384 10384 10385 10387 10391 10395 10398 10401
10333 10333 10334 10334 10334 10334 10334 10334 10334 10334 10335 10336 10337 10336 10334 10332 10331 10331 10333 10335 10337 10340 10344 10346 10348 10349 10349 10348 10346 10345 10346 10348 10350 10351 10351 10351 10350 10349 10348 10348 10349 10349 10349 10350 10350 10352 10353 10354 10353 10353 10353 10353 10354 10355 10355 10356 10356 10356 10356 10357 10359 10360 10361 10361 10362 10362 10362 10362 10363 10363 10363 10363 10364 10365 10367 10368 10368 10369 10369 10370 10371 10372 10376 10380 10384
10319 10320 10321 10321 10321 10321 10322 10322 10322 10322 10322 10322 10324 10325 10324 10322 10321 10321 10322 10323 10326 10328 10332 10336 10337 10337 10336 10335 10333 10333 10335 10337 10338 10338 10338 10337 10337 10335 10334 10335 10336 10337 10337 10338 10338 10339 10340 10341 10341 10340 10340 10341 10343 10344 10344 10345 10345 10345 10346 10346 10347 10347 10348 10348 10348 10348 10349 10349 10349 10349 10349 10349 10349 10350 10350 10351 10352 10353 10354 10354 10355 10355 10356 10360 10364
10306 10307 10307 10308 10308 10309 10310 10310 10310 10309 10309 10309 10311 10313 10313 10313 10314 10313 10313 10314 10315 10316 10320 10324 10325 10325 10324 10323 10323 10324 10325 10326 10326 10326 10325 10324 10324 10323 10323 10324 10325 10326 10326 10326 10326 10326 10327 10328 10328 10328 10329 10331 10332 10333 10333 10333 10333 10334 10334 10334 10334 10334 10334 10335 10335 10336 10336 10336 10336 10337 10337 10336 10335 10335 10335 10335 10335 10336 10337 10338 10338 10339 10339 10341 10345
10294 10294 10294 10295 10296 10297 10298 10298 10298 10297 10296 10297 10298 10300 10302 10304 10306 10306 10305 10305 10306 10307 10309 10311 10312 10312 10312 10313 10313 10314 10315 10315 10315 10315 10314 10314 10314 10314 10314 10314 10315 10315 10315 10315 10314 10315 10315 10316 10317 10318 10319 10321 10322 10321 10321 10321 10322 10322 10322 10322 10322 10322 10322 10323 10323 10324 10324 10324 10325 10324 10324 10322 10321 10320 10320 10320 10320 10320 10321 10322 10323 10324 10324 10326 10329
10283 10283 10283 10283 10285 10287 10286 10285 10285 10284 10284 10285 10286 10290 10294 10296 10297 10297 10297 10297 10298 10299 10298 10299 10301 10302 10303 10303 10303 10304 10304 10304 10304 10304 10305 10305 10305 10305 10304 10304 10304 10305 10305 10305 10305 10305 10305 10306 10307 10308 10309 10310 10311 10311 10311 10311 10311 10311 10311 10311 10311 10311 10312 10312 10312 10313 10312 10312 10312 10311 10309 10308 10307 10306 10306 10306 10306 10306 10307 10308 10310 10311 10311 10313 10316
10272 10272 10271 10272 10273 10274 10273 10271 10271 10272 10274 10276 10277 10282 10287 10287 10286 10287 10288 10289 10290 10289 10288 10290 10292 10294 10294 10294 10294 10293 10293 10293 10294 10296 10296 10296 10295 10295 10295 10295 10295 10296 10296 10296 10295 10295 10295 10296 10297 10298 10299 10300 10301 10301 10301 10301 10301 10301 10301 10301 10301 10302 10302 10302 10302 10301 10301 10300 10298 10297 10296 10295 10294 10294 10294 10295 10295 10295 10295 10296 10298 10300 10300 10301 10303
10259 10260 10260 10261 10261 10260 10260 10260 10260 10262 10265 10268 10270 10273 10276 10276 10276 10277 10279 10280 10281 10281 10280 10282 10284 10285 10286 10285 10284 10284 10284 10285 10286 10287 10286 10286 10286 10286 10287 10287 10287 10287 10287 10286 10286 10286 10286 10287 10288 10288 10289 10290 10291 10292 10292 10292 10292 10292 10292 10292 10292 10292 10292 10291 10290 10289 10288 10287 10286 10286 10285 10285 10285 10285 10285 10285 10285 10284 10285 10286 10287 10288 10289 10290 10291
10247 10248 10249 10249 10249 10249 10249 10249 10250 10253 10258 10261 10263 10263 10262 10262 10265 10269 10270 10270 10271 10272 10272 10274 10275 10276 10276 10277 10276 10276 10277 10277 10277 10277 10276 10277 10277 10278 10278 10278 10279 10279 10278 10278 10278 10278 10278 10278 10279 10280 10280 10281 10282 10283 10284 10284 10284 10284 10284 10284 10283 10282 10281 10279 10278 10278 10277 10277 10277 10278 10278 10277 10277 10276 10276 10276 10275 10275 10275 10276 10277 10279 10280 10280 10281
10236 10237 10237 10238 10239 10241 10241 10240 10241 10247 10251 10253 10254 10253 10251 10251 10254 10258 10261 10262 10263 10262 10263 10264 10265 10266 10267 10268 10269 10269 10269 10269 10269 10268 10268 10269 10269 10269 10270 10271 10271 10271 10270 10271 10271 10270 10271 10271 10271 10272 10272 10273 10274 10275 10276 10276 10276 10276 10276 10274 10272 10271 10269 10268 10268 10269 10270 10270 10270 10270 10269 10269 10269 10268 10268 10268 10268 10267 10267 10267 10268 10269 10271 10271 10271
10226 10227 10228 10229 10231 10233 10233 10232 10233 10239 10244 10244 10244 10243 10242 10242 10245 10249 10252 10253 10253 10253 10255 10255 10256 10258 10259 10260 10260 10261 10260 10261 10261 10261 10261 10261 10261 10261 10262 10263 10263 10263 10263 10263 10263 10263 10264 10264 10265 10265 10266 10267 10268 10268 10269 10269 10268 10267 10266 10264 10262 10260 10260 10260 10261 10262 10262 10262 10261 10261 10261 10261 10261 10261 10260 10259 10259 10259 10258 10258 10259 10261 10262 10262 10262
10217 10218 10219 10220 10222 10224 10225 10225 10226 10231 10235 10236 10235 10235 10234 10235 10238 10241 10244 10244 10244 10246 10248 10248 10249 10250 10250 10251 10251 10252 10252 10253 10253 10253 10253 10253 10254 10255 10256 10256 10256 10256 10256 10257 10257 10257 10257 10258 10258 10259 10260 10261 10261 10261 10261 10260 10259 10258 10257 10255 10253 10252 10253 10254 10254 10254 10254 10254 10254 10254 10254 10253 10253 10252 10251 10251 10251 10251 10250 10250 10251 10252 10253 10253 10253
10207 10208 10209 10210 10213 10216 10218 10219 10221 10223 10226 10227 10227 10226 10226 10228 10231 10233 10235 10236 10237 10239 10240 10241 10241 10242 10242 10242 10243 10243 10244 10244 10245 10246 10247 10248 10249 10249 10249 10249 10249 10249 10250 10250 10251 10251 10251 10252 10252 10253 10254 10254 10254 10253 10253 10252 10250 10249 10249 10248 10247 10247 10246 10247 10247 10247 10246 10247 10247 10247 10246 10245 10245 10244 10244 10244 10244 10243 10243 10244 10244 10244 10245 10246 10246
10198 10199 10200 10202 10206 10209 10212 10213 10214 10215 10217 10218 10218 10218 10219 10222 10224 10225 10226 10228 10230 10231 10231 10232 10233 10234 10234 10235 10235 10236 10236 10237 10239 10241 10242 10243 10243 10242 10242 10243 10243 10243 10244 10244 10245 10245 10246 10246 10246 10247 10247 10247 10246 10245 10244 10243 10243 10242 10242 10241 10241 10241 10240 10240 10240 10240 10240 10240 10240 10240 10239 10238 10238 10237 10237 10237 10237 10237 10237 10237 10237 10238 10238 10239 10240
10190 10191 10193 10195 10199 10202 10204 10205 10206 10207 10208 10209 10210 10212 10214 10216 10217 10217 10219 10221 10222 10222 10222 10224 10225 10227 10227 10228 10228 10229 10230 10231 10234 10236 10237 10236 10236 10236 10236 10237 10237 10237 10238 10239 10239 10240 10239 10239 10240 10240 10240 10240 10239 10237 10237 10237 10236 10236 10235 10235 10234 10234 10234 10234 10234 10234 10234 10234 10234 10234 10233 10232 10232 10231 10231 10231 10231 10231 10231 10231 10232 10232 10233 10233 10234
10183 10185 10187 10189 10192 10194 10196 10197 10198 10198 10199 10200 10202 10205 10207 10208 10209 10210 10212 10213 10213 10214 10215 10217 10218 10219 10220 10221 10222 10223 10224 10226 10229 10230 10230 10230 10230 10230 10230 10230 10231 10232 10232 10233 10233 10233 10233 10233 10233 10234 10233 10232 10231 10231 10231 10231 10230 10229 10229 10229 10229 10228 10229 10229 10229 10229 10229 10229 10228 10228 10228 10227 10226 10226 10226 10226 10226 10226 10227 10227 10227 10228 10228 10228 10228
10176 10179 10181 10183 10185 10186 10187 10188 10190 10191 10191 10192 10195 10197 10199 10200 10202 10204 10204 10205 10207 10208 10209 10210 10211 10212 10214 10215 10215 10217 10219 10221 10223 10223 10223 10223 10223 10224 10224 10225 10226 10226 10226 10226 10226 10227 10227 10227 10227 10227 10227 10226 10225 10225 10225 10225 10224 10224 10224 10224 10224 10223 10224 10224 10225 10224 10224 10224 10224 10224 10223 10223 10222 10222 10222 10222 10222 10222 10223 10223 10223 10223 10224 10224 10224
10169 10171 10173 10175 10176 10178 10179 10181 10183 10184 10184 10186 10188 10190 10191 10193 10195 10197 10197 10199 10200 10201 10202 10203 10205 10206 10208 10209 10210 10211 10213 10215 10215 10215 10216 10216 10217 10218 10219 10220 10220 10220 10220 10220 10221 10221 10221 10222 10222 10221 10220 10219 10219 10220 10220 10219 10219 10219 10219 10219 10219 10219 10220 10220 10220 10220 10220 10219 10219 10219 10219 10218 10218 10218 10218 10218 10218 10219 10219 10219 10219 10220 10220 10220 10220
10161 10163 10165 10167 10169 10171 10172 10174 10175 10176 10177 10179 10181 10182 10184 10186 10188 10190 10191 10192 10193 10194 10195 10197 10199 10201 10201 10202 10203 10205 10206 10207 10208 10209 10210 10211 10212 10213 10213 10213 10214 10214 10215 10215 10216 10216 10216 10216 10216 10216 10214 10214 10214 10215 10215 10214 10214 10215 10215 10215 10215 10216 10216 10216 10216 10216 10215 10215 10215 10215 10215 10214 10214 10214 10214 10215 10215 10215 10215 10215 10215 10215 10216 10216 10216
10155 10157 10158 10160 10162 10164 10165 10167 10168 10170 10171 10172 10173 10175 10177 10179 10181 10183 10184 10185 10187 10189 10190 10192 10193 10194 10195 10196 10197 10199 10199 10201 10202 10203 10204 10205 10206 10206 10207 10208 10209 10209 10210 10210 10210 10211 10211 10211 10211 10210 10209 10209 10210 10210 10210 10210 10210 10211 10211 10211 10212 10212 10212 10212 10212 10212 10212 10212 10212 10212 10211 10211 10211 10211 10211 10211 10211 10211 10211 10211 10211 10212 10212 10212 10213
10149 10150 10152 10153 10155 10157 10158 10160 10162 10163 10165 10166 10168 10170 10172 10173 10175 10176 10178 10180 10181 10183 10184 10185 10187 10188 10189 10190 10191 10193 10194 10195 10196 10197 10198 10199 10200 10201 10202 10203 10204 10204 10205 10205 10206 10206 10206 10206 10206 10205 10205 10205 10206 10206 10206 10206 10207 10207 10208 10208 10208 10209 10209 10209 10209 10209 10209 10209 10209 10209 10209 10209 10209 10208 10208 10208 10208 10208 10208 10208 10208 10208 10209 10209 10209
10143 10145 10146 10148 10149 10151 10153 10154 10156 10158 10159 10161 10163 10165 10166 10167 10169 10171 10173 10175 10176 10177 10178 10179 10181 10182 10184 10185 10186 10187 10188 10189 10190 10191 10192 10194 10195 10196 10197 10198 10199 10200 10200 10200 10201 10201 10201 10202 10201 10201 10201 10202 10202 10203 10203 10203 10204 10204 10205 10205 10205 10206 10206 10206 10206 10206 10207 10207 10206 10206 10207 10206 10206 10206 10206 10205 10205 10205 10205 10205 10205 10205 10206 10206 10206
10139 10140 10141 10143 10144 10146 10147 10149 10151 10152 10154 10156 10157 10159 10161 10162 10164 10166 10168 10169 10170 10171 10173 10174 10175 10177 10178 10180 10181 10182 10183 10184 10185 10186 10188 10189 10190 10191 10192 10194 10195 10195 10196 10196 10196 10197 10197 10198 10197 10197 10197 10198 10199 10199 10200 10200 10201 10202 10202 10202 10203 10203 10204 10204 10204 10204 10204 10204 10204 10204 10204 10204 10204 10203 10203 10203 10202 10202 10202 10202 10202 10202 10203 10203 10203
10135 10136 10138 10139 10140 10142 10143 10145 10146 10148 10149 10151 10153 10154 10156 10158 10160 10161 10162 10164 10165 10167 10168 10169 10170 10172 10173 10174 10176 10177 10178 10180 10181 10182 10183 10185 10186 10187 10188 10190 10191 10192 10192 10192 10193 10193 10194 10194 10194 10194 10194 10195 10195 10196 10196 10197 10198 10199 10200 10200 10200 10201 10201 10202 10202 10202 10202 10202 10202 10202 10202 10201 10201 10201 10200 10200 10200 10200 10200 10200 10200 10200 10200 10200 10201
10131 10132 10134 10135 10137 10138 10140 10141 10142 10144 10145 10147 10149 10151 10152 10153 10155 10156 10157 10159 10160 10162 10163 10165 10166 10168 10169 10170 10171 10173 10174 10176 10177 10178 10179 10181 10182 10183 10185 10186 10187 10188 10188 10189 10189 10189 10190 10190 10190 10190 10191 10192 10192 10193 10193 10195 10196 10197 10197 10198 10198 10198 10199 10199 10200 10200 10200 10200 10200 10200 10200 10199 10199 10198 10198 10198 10198 10197 10198 10198 10198 10198 10198 10198 10198
10127 10129 10130 10131 10133 10135 10136 10137 10139 10140 10142 10144 10145 10147 10148 10149 10151 10152 10153 10154 10156 10157 10159 10161 10162 10163 10165 10166 10167 10169 10170 10172 10173 10175 10176 10177 10179 10180 10181 10183 10184 10185 10185 10185 10185 10186 10186 10187 10187 10187 10188 10188 10189 10190 10191 10192 10194 10195 10195 10195 10196 10196 10197 10197 10197 10197 10197 10198 10198 10198 10197 10197 10196 10196 10196 10196 10196 10196 10195 10196 10196 10196 10196 10196 10196
10124 10125 10127 10128 10129 10131 10132 10134 10136 10137 10139 10140 10141 10143 10144 10145 10146 10148 10149 10150 10152 10154 10155 10157 10158 10160 10161 10162 10164 10165 10167 10168 10170 10171 10173 10174 10175 10177 10178 10180 10181 10181 10181 10182 10182 10182 10183 10183 10184 10184 10185 10185 10186 10187 10188 10190 10191 10192 10193 10193 10193 10194 10194 10194 10195 10195 10195 10195 10196 10196 10195 10195 10195 10194 10194 10194 10194 10194 10194 10194 10194 10194 10194 10194 10194
10122 10123 10124 10125 10126 10128 10129 10131 10132 10134 10135 10136 10138 10139 10141 10142 10143 10144 10145 10147 10149 10150 10152 10153 10155 10156 10158 10159 10161 10163 10164 10165 10167 10168 10170 10171 10173 10174 10175 10176 10177 10178 10178 10178 10179 10179 10179 10180 10180 10181 10182 10182 10184 10185 10186 10187 10188 10190 10190 10190 10191 10191 10192 10192 10192 10192 10193 10193 10193 10194 10194 10193 10193 10193 10193 10193 10192 10192 10192 10192 10192 10192 10192 10193 10193
10120 10121 10122 10123 10124 10125 10127 10128 10129 10131 10132 10133 10135 10137 10138 10139 10141 10142 10143 10145 10146 10148 10149 10151 10152 10154 10156 10157 10159 10160 10161 10163 10164 10166 10167 10168 10170 10171 10172 10173 10173 10174 10174 10175 10175 10175 10176 10176 10177 10178 10179 10179 10180 10182 10183 10184 10186 10187 10188 10188 10188 10189 10189 10190 10190 10190 10190 10190 10191 10191 10192 10191 10191 10191 10192 10191 10191 10191 10191 10191 10191 10191 10191 10191 10191
10118 10119 10120 10121 10122 10123 10125 10126 10127 10128 10130 10131 10133 10134 10135 10137 10138 10140 10141 10143 10144 10146 10147 10148 10150 10152 10154 10155 10157 10158 10159 10161 10162 10163 10165 10166 10167 10168 10169 10169 10170 10170 10171 10171 10172 10172 10173 10173 10174 10175 10175 10176 10177 10179 10180 10181 10183 10184 10185 10185 10186 10186 10187 10187 10187 10188 10188 10188 10188 10189 10190 10189 10189 10190 10190 10190 10190 10189 10190 10190 10190 10190 10190 10190 10190